[[{"header":{"parameterUnit":"m.s-1","parameterCategory":1,"la1":30.2991,"la2":30.254,"lo1":-89.0895,"lo2":-89.0444,"dy":0.0017,"dx":0.0017,"nx":28,"ny":28,"refTime":"2025-03-22T09:00:00:Z","depth":0,"parameterNumber":2,"parameterNumberName":"U-component_of_WINDS"},"data":[0,0,0,0,0,0,0,0,0,0,0,0,0,0,0,0,0,0,0,0,0,0,0,0,0,0,0,0,0,0,0,0,0,0,0,0,0,0,0,0,0,0,0,0,0,0,0,0,0,0,0,0,0,0,0,0,0,0,2.866,2.8661,0,2.874,2.874,2.8741,2.8685,2.8682,2.868,2.8677,2.8761,2.8765,2.877,0,0,0,0,0,0,0,0,0,0,0,0,0,2.8459,2.8463,2.866,2.8661,2.8662,2.8739,2.874,2.8742,2.8685,2.8682,2.8679,2.8676,2.8759,2.8765,2.877,0,0,0,0,0,0,0,0,0,0,0,0,0,2.8543,2.8464,2.866,2.8643,2.8643,2.8739,2.8741,2.8742,2.8686,2.8682,2.8678,2.8675,2.8758,2.8764,2.8771,2.8889,0,0,2.8792,2.8795,0,0,0,0,0,0,0,0,2.8539,2.8551,2.8645,2.8645,2.8644,2.8698,2.87,2.8791,2.8687,2.867,2.8677,2.8673,2.8743,2.8751,2.8774,2.8893,2.8896,2.8792,2.8797,2.88,2.8801,0,0,0,0,0,0,0,2.8533,2.8547,2.8692,2.8646,2.8646,2.8632,2.8639,2.8717,2.8727,2.8671,2.8667,2.8677,2.8742,2.8768,2.8776,2.8897,2.8792,2.8798,2.8803,2.8805,2.9111,2.9114,0,0,0,0,0,0,2.8528,2.8543,2.8689,2.8694,2.8581,2.8638,2.8647,2.8685,2.8726,2.8728,2.868,2.8674,2.8758,2.8768,2.8779,2.8915,2.8799,2.8806,2.881,2.9107,2.9111,2.9116,0,0,0,0,0,0,2.8524,2.8542,2.8686,2.8617,2.8634,2.8646,2.8689,2.8688,2.8714,2.8733,2.8734,2.8704,2.8755,2.8769,2.886,2.8917,2.8809,2.8815,2.9102,2.9108,2.9114,2.9191,0,0,0,0,0,0,2.8519,2.8541,2.8587,2.8619,2.8638,2.8767,2.8692,2.8693,2.8725,2.8718,2.8756,2.8758,2.8753,2.885,2.8867,2.8925,2.8821,2.9097,2.9105,2.9112,2.9184,2.9199,2.9213,0,0,0,0,0,2.8512,2.8607,2.8589,2.8607,2.8695,2.8771,2.8782,2.8773,2.873,2.8775,2.8787,2.8757,2.8909,2.886,2.8879,2.8939,2.9093,2.9102,2.9111,2.9177,2.9196,2.9212,0,0,0,0,0,0,2.8583,2.8611,2.8592,2.87,2.8733,2.8761,2.8818,2.8795,2.8842,2.8833,2.8821,2.883,2.8925,2.8942,2.8887,2.9052,2.8994,2.9007,2.9038,2.9056,2.907,2.9063,2.8826,0,0,0,0,0,2.8611,2.867,2.8691,2.8785,2.8802,2.8807,2.884,2.883,2.8864,2.8878,2.8896,2.8931,2.8985,2.9022,2.9074,2.9186,2.9191,2.9237,2.9251,2.9263,2.9274,2.9329,2.9348,2.9145,2.9145,2.9145,0,0,2.8671,2.8693,2.8731,2.88,2.8824,2.8883,2.882,2.8887,2.893,2.8889,2.8974,2.8989,2.9027,2.9127,2.9173,2.9144,2.9331,2.9274,2.9283,2.9288,2.934,2.936,2.9377,2.9152,2.915,2.9149,0,0,2.8808,2.8832,2.891,2.8935,2.8972,2.8974,2.8993,2.9023,2.903,2.9116,2.9085,2.9137,2.9233,2.9259,2.9285,2.9427,2.94,2.9445,2.952,2.9574,2.959,2.9604,2.9651,2.9668,2.9456,2.9456,2.9456,0,2.8877,2.8966,2.8954,2.9022,2.9051,2.9014,2.9091,2.9116,2.9169,2.919,2.9157,2.9272,2.9296,2.94,2.9434,2.9458,2.9476,2.944,2.9589,2.9603,2.9615,2.966,2.9678,2.9461,2.946,2.946,2.946,0,2.9046,2.9108,2.9167,2.9215,2.9251,2.9324,2.9322,2.936,2.9346,2.9351,2.9437,2.9463,2.9517,2.9541,2.953,2.9643,2.9623,2.959,2.953,2.964,2.9681,2.9699,2.9468,2.9466,2.9465,2.9464,0,0,2.9232,2.927,2.9292,2.9311,2.9347,2.9394,2.9464,2.9515,2.9546,2.9583,2.9639,2.9719,2.9686,2.9716,2.9707,2.9755,2.9861,2.9715,2.9716,2.9738,2.9982,3.0005,3.0025,2.9844,2.9847,2.985,2.9978,0,2.9368,2.9488,2.9478,2.9591,2.9645,2.9609,2.9669,2.9697,2.9703,2.975,2.9756,2.9811,2.9767,2.9783,2.983,2.9838,2.9909,2.983,2.9894,2.9897,2.9883,3.0047,3.0073,3.0192,2.9994,2.9997,2.9999,0,2.9544,2.9583,2.9701,2.9724,2.9747,2.9801,2.9844,2.989,2.992,2.992,2.9951,2.9933,3.0001,2.9941,3.0033,2.9978,3.0004,3.0012,3.0016,3.002,2.9953,3.0052,3.023,3.0247,3.0025,3.0023,3.0021,0,2.9662,2.9746,2.9825,2.9844,2.9874,2.9912,2.9926,2.9952,2.9982,3.002,3.0039,3.0086,3.0111,3.0146,3.014,3.0098,3.0233,3.0173,3.0233,3.0233,3.0262,3.0259,3.0443,3.0283,3.0283,3.0283,3.0282,0,2.9814,2.9887,2.9878,2.9927,3.0006,2.9993,3.0072,3.0082,3.0104,3.0153,3.0126,3.0173,3.0163,3.0209,3.0205,3.0279,3.0292,3.0293,3.029,3.0293,3.0293,3.0309,3.0299,3.0287,3.0286,3.0285,3.0285,0,2.996,2.9957,3.0041,3.0061,3.0068,3.0125,3.0142,3.0187,3.0189,3.0252,3.0266,3.0269,3.0322,3.0319,3.038,3.0376,3.0467,3.0457,3.0456,3.0453,3.0511,3.0504,3.0709,3.0733,3.0561,3.0563,3.0564,0,3.0055,3.0109,3.0134,3.0164,3.018,3.023,3.0259,3.0247,3.0278,3.0313,3.0354,3.0403,3.0442,3.0527,3.0535,3.058,3.0568,3.0636,3.0575,3.0575,3.0565,3.056,3.0564,3.0648,3.065,3.0652,3.0653,0,3.0223,3.0218,3.0261,3.0302,3.0337,3.0369,3.0399,3.0425,3.0416,3.0452,3.0504,3.0534,3.0593,3.0641,3.0683,3.0697,3.0673,3.0672,3.0688,3.069,3.0686,3.0685,3.0486,3.0667,3.0666,3.0665,3.0664,3.0663,3.0344,3.0389,3.0412,3.0459,3.0479,3.0506,3.0548,3.0554,3.0597,3.0642,3.0633,3.0691,3.0715,3.0768,3.0786,3.083,3.0806,3.083,3.0835,3.084,3.0845,3.0681,3.0839,3.0838,3.0838,3.0837,3.0837,0,3.0508,3.052,3.0563,3.0603,3.0639,3.0612,3.0642,3.0674,3.0724,3.0749,3.0786,3.0844,3.0889,3.09,3.0943,3.0976,3.0966,3.0988,3.0984,3.0986,3.0866,3.0847,3.0995,3.0995,3.0995,3.0995,3.0995,3.0995,3.0597,3.0669,3.0666,3.0747,3.0759,3.0814,3.0832,3.0856,3.0875,3.094,3.0977,3.0983,3.1001,3.1044,3.1084,3.1086,3.1102,3.1127,3.1124,3.1011,3.0996,3.098,3.0962,3.1132,3.1132,3.124,3.1241,3.1242]},{"header":{"parameterUnit":"m.s-1","parameterCategory":1,"la1":30.2991,"la2":30.254,"lo1":-89.0895,"lo2":-89.0444,"dy":0.0017,"dx":0.0017,"nx":28,"ny":28,"refTime":"2025-03-22T09:00:00:Z","depth":0,"parameterNumber":3,"parameterNumberName":"V-component_of_WINDS"},"data":[0,0,0,0,0,0,0,0,0,0,0,0,0,0,0,0,0,0,0,0,0,0,0,0,0,0,0,0,0,0,0,0,0,0,0,0,0,0,0,0,0,0,0,0,0,0,0,0,0,0,0,0,0,0,0,0,0,0,4.3332,4.3333,0,4.3378,4.3379,4.3379,4.3329,4.3327,4.3326,4.3324,4.3368,4.3371,4.3374,0,0,0,0,0,0,0,0,0,0,0,0,0,4.3196,4.3199,4.3332,4.3333,4.3333,4.3378,4.3379,4.3379,4.333,4.3327,4.3325,4.3323,4.3367,4.3371,4.3374,0,0,0,0,0,0,0,0,0,0,0,0,0,4.325,4.32,4.3332,4.3314,4.3313,4.3378,4.3379,4.3379,4.333,4.3327,4.3324,4.3322,4.3366,4.337,4.3375,4.3459,0,0,4.3388,4.339,0,0,0,0,0,0,0,0,4.3247,4.3255,4.3316,4.3315,4.3314,4.3345,4.3347,4.3406,4.3331,4.3324,4.3324,4.332,4.3363,4.3367,4.3382,4.3461,4.3463,4.3389,4.3391,4.3393,4.3395,0,0,0,0,0,0,0,4.3244,4.3253,4.335,4.3317,4.3316,4.3302,4.3306,4.3358,4.3358,4.3324,4.332,4.3327,4.3362,4.3378,4.3383,4.3464,4.3389,4.3393,4.3395,4.3397,4.361,4.3613,0,0,0,0,0,0,4.3242,4.325,4.3349,4.3352,4.3273,4.3307,4.3312,4.3338,4.3358,4.3358,4.3329,4.3324,4.3372,4.3378,4.3384,4.3481,4.3393,4.3398,4.34,4.3607,4.361,4.3614,0,0,0,0,0,0,4.324,4.3252,4.3347,4.33,4.3311,4.3312,4.3342,4.334,4.3357,4.3362,4.3361,4.3346,4.337,4.3378,4.344,4.3482,4.34,4.3404,4.3603,4.3608,4.3612,4.3677,0,0,0,0,0,0,4.3236,4.3251,4.3284,4.3301,4.3314,4.3404,4.3345,4.3343,4.3365,4.3359,4.3377,4.3378,4.3368,4.3434,4.3444,4.3486,4.3407,4.36,4.3605,4.3611,4.3671,4.3683,4.3693,0,0,0,0,0,4.3231,4.3301,4.3286,4.3299,4.3356,4.3406,4.3413,4.3402,4.3368,4.3401,4.3403,4.3377,4.3476,4.3441,4.3452,4.3496,4.3597,4.3604,4.361,4.3666,4.368,4.3693,0,0,0,0,0,0,4.3289,4.3303,4.3287,4.3365,4.3385,4.3398,4.3438,4.3418,4.3448,4.3441,4.3424,4.3429,4.3494,4.3502,4.3462,4.3576,4.3531,4.354,4.3569,4.3583,4.3594,4.3589,4.3411,0,0,0,0,0,4.3311,4.3352,4.3362,4.3429,4.344,4.3438,4.3459,4.3448,4.3468,4.3476,4.3484,4.3503,4.3537,4.3561,4.3594,4.3672,4.3673,4.3708,4.3719,4.3728,4.3735,4.3773,4.3787,4.3636,4.3636,4.3636,0,0,4.3357,4.3369,4.3396,4.3441,4.3455,4.3496,4.3445,4.3492,4.3521,4.3483,4.3541,4.3547,4.3567,4.3637,4.3668,4.3645,4.3778,4.3737,4.3744,4.3746,4.3782,4.3796,4.3809,4.364,4.364,4.3639,0,0,4.3459,4.3475,4.3531,4.3545,4.3567,4.3565,4.3578,4.3594,4.3597,4.3655,4.3627,4.3661,4.3723,4.3737,4.3752,4.3857,4.3833,4.3869,4.3926,4.3963,4.3975,4.3985,4.4019,4.4032,4.3877,4.3877,4.3877,0,4.3513,4.3574,4.3562,4.3609,4.3628,4.3596,4.365,4.3665,4.3697,4.371,4.3684,4.3758,4.377,4.384,4.3866,4.3881,4.3893,4.3865,4.3975,4.3985,4.3994,4.4026,4.404,4.3881,4.388,4.388,4.388,0,4.3636,4.3679,4.3721,4.3752,4.3776,4.3827,4.382,4.3845,4.3832,4.3832,4.3889,4.3902,4.3935,4.3952,4.394,4.402,4.4004,4.3977,4.393,4.4013,4.4042,4.4055,4.3886,4.3885,4.3884,4.3883,0,0,4.3777,4.3798,4.3813,4.3825,4.3846,4.3878,4.3926,4.3958,4.3979,4.4002,4.4039,4.4091,4.4065,4.4082,4.4072,4.4105,4.4182,4.4073,4.4073,4.409,4.4267,4.4284,4.4299,4.4167,4.417,4.4172,4.4264,0,4.3877,4.396,4.3949,4.4029,4.4066,4.4035,4.4076,4.4092,4.4093,4.4123,4.4124,4.4159,4.4124,4.4134,4.4166,4.4166,4.4217,4.416,4.4199,4.4201,4.4192,4.4315,4.4335,4.4421,4.4276,4.4278,4.4279,0,4.4005,4.403,4.4113,4.4125,4.414,4.4178,4.4204,4.4235,4.4252,4.4249,4.4268,4.425,4.4296,4.425,4.4311,4.4272,4.4288,4.4291,4.4294,4.4294,4.4243,4.4316,4.4449,4.446,4.4298,4.4296,4.4295,0,4.4093,4.415,4.4205,4.4217,4.4233,4.4259,4.4267,4.4281,4.43,4.4323,4.4335,4.4364,4.4379,4.44,4.439,4.4359,4.4451,4.4406,4.4448,4.4448,4.4467,4.4465,4.4601,4.4483,4.4483,4.4482,4.4482,0,4.4204,4.4255,4.4245,4.4279,4.4334,4.432,4.4374,4.4378,4.4391,4.4423,4.44,4.443,4.4416,4.4446,4.4438,4.4487,4.4495,4.4493,4.4489,4.4493,4.4493,4.4501,4.4493,4.4486,4.4485,4.4484,4.4484,0,4.4312,4.4308,4.4365,4.4375,4.4379,4.4419,4.4426,4.4457,4.4456,4.4497,4.4506,4.4503,4.4536,4.4528,4.4565,4.456,4.462,4.4611,4.4614,4.4611,4.4652,4.4647,4.4795,4.4812,4.4686,4.4688,4.4689,0,4.4381,4.4419,4.4433,4.4453,4.4462,4.4496,4.4514,4.4502,4.4522,4.4542,4.457,4.4601,4.4624,4.4678,4.4678,4.4705,4.4695,4.4745,4.4698,4.47,4.4691,4.4687,4.4689,4.4753,4.4754,4.4755,4.4756,0,4.4503,4.4499,4.4527,4.4554,4.4576,4.4597,4.4615,4.4633,4.4621,4.4645,4.4678,4.4697,4.4733,4.4763,4.4787,4.4794,4.4772,4.4771,4.4782,4.4784,4.4782,4.478,4.4635,4.4767,4.4766,4.4765,4.4765,4.4764,4.4591,4.4622,4.4635,4.4667,4.4679,4.4696,4.4724,4.4725,4.4753,4.4781,4.4772,4.4809,4.4822,4.4853,4.4862,4.4889,4.487,4.4887,4.489,4.4893,4.4897,4.4781,4.4894,4.4894,4.4894,4.4894,4.4893,0,4.4709,4.4715,4.4744,4.477,4.4793,4.4772,4.4791,4.4811,4.4844,4.4859,4.4882,4.4918,4.4947,4.4949,4.4975,4.4996,4.4987,4.5003,4.5,4.5001,4.4914,4.4901,4.501,4.501,4.501,4.501,4.501,4.501,4.4772,4.4822,4.4818,4.4873,4.4879,4.4915,4.4926,4.4941,4.4952,4.4993,4.5017,4.5018,4.5026,4.5053,4.5077,4.5076,4.5085,4.5105,4.5101,4.5019,4.5007,4.4996,4.4983,4.5108,4.5108,4.5184,4.5185,4.5185]}]]